Terminal Aerodrome Forecast
Issued by NWS

Home | Current Version | Previous Version | Text Only | Print | Product List | Glossary On
Versions: 1 2 3 4 5 6 7 8 9 10 11 12
000
FTUS45 KVEF 241100
TAFEED
TAF
KEED 241120Z 2412/2512 VRB05KT P6SM SKC
     FM242000 18007KT P6SM SKC
     FM250200 23007KT P6SM SKC=

USA.gov is the U.S. government's official web portal to all federal, state and local government web resources and services.